CXO

Last updated on Sun Apr 12 2026 00:03:41 GMT+0000 (Coordinated Universal Time)

1 25867U 99040B 26103.26452838 .00000981 00000+0 00000+0 0 9996 2 25867 55.0979 118.6093 7944075 310.5417 0.3347 0.37801723 17084
UTC large
Height (km)
Speed (km/s)
/
Latitude / Longitude
Inclination (degrees)
Orbital Period (minutes)
Azimuth
Elevation
Range (km)
Doppler Factor

Next 0 passes for location: London (51.5072 / 0.1276)

Sorry there are no passes over London.
CXO